Location: Doschendorf
(50.0069°N, 11.0602°E)
Time: 22:13:31
(UTC+00:00)

NOAA 12 - Visible Passes

Search period start: 21 February 2020 00:00
Search period end: 02 March 2020 00:00
Orbit: 796 x 814 km, 98.5° (Epoch: 21 February)

Date Brightness Start Highest point End Pass type
(mag) Time Alt. Az. Time Alt. Az. Time Alt. Az.
21 Feb 6.0 05:19:52 10° NNE 05:24:47 36° E 05:29:40 10° SSE visible
21 Feb 7.2 18:26:48 10° SW 18:30:06 17° W 18:33:25 10° NW visible
22 Feb 6.8 04:55:16 10° NE 04:59:30 23° E 05:03:41 10° SE visible
22 Feb 6.6 18:00:22 10° SSW 18:04:44 26° W 18:09:10 10° NW visible
23 Feb 7.4 04:31:11 10° NE 04:34:06 15° E 04:37:01 10° ESE visible
23 Feb 5.7 17:34:30 10° SSW 17:39:29 40° W 17:44:30 10° NNW visible
25 Feb 6.0 05:19:29 10° NNE 05:24:24 36° E 05:29:17 10° SSE visible
25 Feb 7.3 18:26:24 10° SW 18:29:43 17° W 18:33:03 10° NW visible
26 Feb 6.8 04:54:54 10° NE 04:59:07 23° E 05:03:18 10° SE visible
26 Feb 6.6 17:59:57 10° SSW 18:04:21 26° W 18:08:47 10° NW visible
27 Feb 7.4 04:30:49 10° NE 04:33:43 15° E 04:36:37 10° ESE visible
27 Feb 5.7 17:34:07 10° SSW 17:39:05 41° W 17:44:07 10° NNW visible
29 Feb 6.0 05:19:07 10° NNE 05:24:01 36° E 05:28:53 10° SSE visible
29 Feb 7.2 18:25:59 10° SW 18:29:19 17° W 18:32:42 10° NW visible
01 Mar 6.9 04:54:31 10° NE 04:58:44 23° E 05:02:54 10° SE visible
01 Mar 6.6 17:59:33 10° SSW 18:03:58 26° W 18:08:24 10° NW visible
